Content
SEND FEEDBACK

Daily
Averages
Monthly
Summary
United States of America

MERIZO, GUAM


Home > North America > United States > Guam
Elevation: 3 meters     Latitude: 13 14N     Longitude: 144 39E

WEATHER
 
SELECT A DAY
Number of Records: 350,245;   Date Range: 1/1/95 - 9/30/14
 
SHARE

PRINT THIS DATA

[ ← Previous Day ]
WEATHER ALMANAC - 2 JULY, 2014
[ Next Day → ]
[ °F ]   °C
Weather ElementAverageHighLow
Temperature28.4 °C30 °C (10:08 am)26.2 °C (3:58 am)
Dewpoint25.3 °C26.1 °C (8:58 am)24 °C (10:33 am)
Humidity83.5 %94 % (9:24 pm)74 % (10:33 am)
Barometer1008.1 hPa1010.2 hPa (8:13 am)1005.4 hPa (6:58 pm)
Wind Speed17.7 km/h27.8 km/h (9:34 pm)
Wind Gust35.2 km/h (2:06 pm)
Weather ElementAverage
Visibility15.8 km
Wind DirectionENE (51.6 °)

Weather ElementTotal
Precipitation0.76 mm
Cooling Degree Days9.8 (Base 18.3)
Growing Degree Days18.1 (Base 10)
Averaged from 80 records on 2 July, 2014
WEATHER CONDITIONS BREAKOUT
WIND DIRECTION BREAKOUT
WEATHER BY HOUR - 2 JULY, 2014
[ °F ]   °C
Local TimeTemperatureDewpointHumidityBarometerVisibilityWind DirectionWind SpeedGust SpeedPrecipitationEventsConditions
1:58 AM27 °C24.3 °C85 %1008.1 hPa16.1 kmEast (100°)3.7 km/hClear
2:58 AM26.4 °C24.3 °C88 %1007.8 hPa16.1 kmCalmClear
3:58 AM26.2 °C24.4 °C90 %1007.8 hPa16.1 kmEast (80°)1.9 km/hClear
4:58 AM26.2 °C24.1 °C88 %1007.5 hPa16.1 kmNorth (360°)3.7 km/hClear
5:58 AM26.7 °C24.8 °C89 %1007.5 hPa16.1 kmENE (60°)9.3 km/hClear
6:58 AM27.6 °C25.3 °C87 %1008.1 hPa16.1 kmNE (40°)11.1 km/hClear
7:38 AM29 °C25 °C79 %1009.8 hPa16.1 kmNNE (30°)11.1 km/hMostly Cloudy
7:43 AM29 °C25 °C79 %1009.8 hPa16.1 kmNE (50°)11.1 km/hMostly Cloudy
7:48 AM29 °C26 °C84 %1009.8 hPa16.1 kmNE (40°)11.1 km/hScattered Clouds
7:58 AM28.8 °C25.5 °C82 %1008.8 hPa16.1 kmNE (40°)13 km/hScattered Clouds
8:13 AM29 °C25 °C79 %1010.2 hPa16.1 kmNE (40°)14.8 km/hMostly Cloudy
8:23 AM29 °C25 °C79 %1009.8 hPa16.1 kmNE (50°)13 km/hMostly Cloudy
8:38 AM29 °C25 °C79 %1010.2 hPa11.3 kmNNE (30°)9.3 km/hMostly Cloudy
8:58 AM28.2 °C26.1 °C88 %1008.1 hPa11.3 kmNNE (20°)13 km/hMostly Cloudy
9:03 AM29 °C26 °C84 %1009.1 hPa16.1 kmNNE (20°)11.1 km/hScattered Clouds
9:08 AM28 °C26 °C89 %1009.5 hPa16.1 kmNE (40°)14.8 km/hMostly Cloudy
9:13 AM28 °C26 °C89 %1009.5 hPa16.1 kmNNE (30°)13 km/hMostly Cloudy
9:18 AM29 °C26 °C84 %1009.5 hPa16.1 kmNE (40°)16.7 km/hScattered Clouds
9:28 AM29 °C26 °C84 %1009.8 hPa16.1 kmNNE (20°)13 km/hMostly Cloudy
9:33 AM29 °C26 °C84 %1009.5 hPa16.1 kmNNE (20°)16.7 km/hMostly Cloudy
9:38 AM29 °C26 °C84 %1009.5 hPa16.1 kmNNE (30°)14.8 km/hScattered Clouds
9:58 AM29.4 °C25.6 °C80 %1008.5 hPa16.1 kmNE (40°)14.8 km/hScattered Clouds
10:03 AM29 °C26 °C84 %1009.5 hPa16.1 kmNE (40°)14.8 km/hMostly Cloudy
10:08 AM30 °C26 °C79 %1009.5 hPa16.1 kmNE (40°)14.8 km/hMostly Cloudy
10:13 AM30 °C26 °C79 %1009.5 hPa16.1 kmNE (40°)20.4 km/hScattered Clouds
10:33 AM29 °C24 °C74 %1009.5 hPa16.1 kmENE (60°)22.2 km/hMostly Cloudy
10:38 AM29 °C24 °C74 %1009.5 hPa16.1 kmENE (60°)20.4 km/hScattered Clouds
10:48 AM30 °C25 °C74 %1009.5 hPa16.1 kmNE (50°)22.2 km/hMostly Cloudy
10:58 AM28.8 °C24.5 °C77 %1008.1 hPa16.1 kmNE (40°)20.4 km/hMostly Cloudy
11:03 AM29 °C24 °C74 %1009.1 hPa16.1 kmNE (40°)20.4 km/hScattered Clouds
11:12 AM29 °C25 °C79 %1008.8 hPa16.1 kmNE (40°)20.4 km/hRainLight Rain
11:17 AM28 °C26 °C89 %1008.8 hPa16.1 kmNNE (30°)24.1 km/hRainLight Rain
11:32 AM28 °C26 °C89 %1008.8 hPa9.7 kmNE (40°)20.4 km/hRainHeavy Rain
11:37 AM27 °C25 °C89 %1008.8 hPa8 kmNE (40°)16.7 km/hRainRain
11:44 AM28 °C26 °C89 %1008.8 hPa16.1 kmNE (40°)13 km/hScattered Clouds
11:49 AM29 °C26 °C84 %1009.1 hPa16.1 kmNNE (30°)14.8 km/hMostly Cloudy
11:58 AM28.5 °C25.8 °C85 %1007.8 hPa16.1 kmNorth (10°)14.8 km/h0.51 mmMostly Cloudy
12:03 PM28 °C25 °C84 %1008.5 hPa16.1 kmNNE (20°)11.1 km/hScattered Clouds
12:23 PM28 °C25 °C84 %1008.1 hPa16.1 kmNE (40°)20.4 km/hMostly Cloudy
12:28 PM28 °C25 °C84 %1008.1 hPa16.1 kmNNE (30°)16.7 km/hMostly Cloudy
12:53 PM29 °C25 °C79 %1008.5 hPa16.1 kmNE (40°)22.2 km/hMostly Cloudy
12:58 PM29.1 °C24.8 °C77 %1007.5 hPa16.1 kmNE (40°)24.1 km/hMostly Cloudy
1:08 PM29 °C24 °C74 %1008.1 hPa16.1 kmNE (50°)20.4 km/hMostly Cloudy
1:13 PM29 °C25 °C79 %1008.1 hPa16.1 kmNE (40°)18.5 km/hMostly Cloudy
1:18 PM29 °C25 °C79 %1007.8 hPa16.1 kmNE (40°)16.7 km/hMostly Cloudy
1:38 PM28 °C24 °C79 %1008.1 hPa16.1 kmNE (40°)18.5 km/hMostly Cloudy
1:48 PM29 °C25 °C79 %1007.8 hPa16.1 kmNNE (30°)20.4 km/hMostly Cloudy
1:58 PM28.7 °C24.9 °C80 %1006.4 hPa16.1 kmNE (50°)22.2 km/hMostly Cloudy
2:06 PM28 °C25 °C84 %1007.5 hPa16.1 kmNE (40°)24.1 km/h35.2 km/hRainLight Rain
2:24 PM28 °C26 °C89 %1007.1 hPa16.1 kmNE (40°)18.5 km/hMostly Cloudy
2:35 PM28 °C25 °C84 %1007.1 hPa16.1 kmNE (40°)20.4 km/hScattered Clouds
2:58 PM29.3 °C25.7 °C81 %1006.1 hPa16.1 kmNE (50°)20.4 km/h0.25 mmPartly Cloudy
3:58 PM29.4 °C25.7 °C80 %1005.8 hPa16.1 kmENE (60°)20.4 km/hScattered Clouds
4:13 PM29 °C26 °C84 %1006.4 hPa16.1 kmNE (50°)18.5 km/hMostly Cloudy
4:23 PM30 °C25 °C74 %1006.4 hPa16.1 kmNE (50°)20.4 km/hScattered Clouds
4:53 PM29 °C26 °C84 %1006.8 hPa16.1 kmNE (50°)16.7 km/hMostly Cloudy
4:58 PM29.3 °C25.8 °C81 %1005.8 hPa16.1 kmENE (60°)22.2 km/hMostly Cloudy
5:08 PM29 °C26 °C84 %1007.1 hPa16.1 kmNE (50°)20.4 km/hMostly Cloudy
5:13 PM29 °C26 °C84 %1007.1 hPa16.1 kmENE (60°)20.4 km/hMostly Cloudy
5:18 PM29 °C26 °C84 %1007.1 hPa16.1 kmENE (60°)24.1 km/hMostly Cloudy
5:38 PM29 °C25 °C79 %1006.8 hPa16.1 kmENE (70°)22.2 km/hScattered Clouds
5:58 PM28.5 °C25.2 °C82 %1005.8 hPa16.1 kmENE (70°)20.4 km/hPartly Cloudy
6:58 PM28.2 °C24.7 °C81 %1005.4 hPa16.1 kmNE (50°)16.7 km/hClear
7:58 PM27.8 °C25.1 °C85 %1006.1 hPa16.1 kmNE (50°)24.1 km/hScattered Clouds
8:08 PM28 °C25 °C84 %1007.5 hPa16.1 kmENE (60°)20.4 km/hMostly Cloudy
8:28 PM28 °C25 °C84 %1007.5 hPa16.1 kmENE (60°)20.4 km/hScattered Clouds
8:58 PM27.8 °C25 °C85 %1006.4 hPa16.1 kmENE (60°)22.2 km/hScattered Clouds
9:03 PM28 °C25 °C84 %1007.5 hPa16.1 kmENE (70°)22.2 km/hMostly Cloudy
9:04 PM28 °C25 °C84 %1007.5 hPa14.5 kmENE (70°)25.9 km/hLight Drizzle
9:09 PM28 °C25 °C84 %1007.8 hPa12.9 kmENE (60°)25.9 km/hRainLight Rain
9:14 PM27 °C25 °C89 %1007.8 hPa16.1 kmENE (70°)24.1 km/hMostly Cloudy
9:19 PM27 °C25 °C89 %1007.8 hPa16.1 kmENE (70°)20.4 km/hMostly Cloudy
9:24 PM27 °C26 °C94 %1007.8 hPa16.1 kmENE (70°)24.1 km/hScattered Clouds
9:34 PM28 °C25 °C84 %1007.8 hPa16.1 kmENE (60°)27.8 km/hMostly Cloudy
9:49 PM28 °C26 °C89 %1007.8 hPa16.1 kmENE (60°)20.4 km/hMostly Cloudy
9:58 PM27.4 °C25.5 °C89 %1006.4 hPa16.1 kmENE (60°)20.4 km/h0 mmMostly Cloudy
10:18 PM27 °C26 °C94 %1007.8 hPa16.1 kmEast (80°)20.4 km/hMostly Cloudy
10:28 PM27 °C26 °C94 %1007.8 hPa16.1 kmENE (70°)20.4 km/hScattered Clouds
10:58 PM27.3 °C25.9 °C92 %1006.8 hPa16.1 kmENE (70°)16.7 km/hScattered Clouds
11:58 PM27.4 °C25.3 °C88 %1006.1 hPa16.1 kmEast (90°)20.4 km/hScattered Clouds
Hourly data recorded from PGUA, located 0 kilometers away from Merizo, Guam







STORIES FROM OUR PARTNERS